Hourly Weather Bolshie Nevadicy

Today, 23 June, Wednesday

Time Temperature Precipitation Wind Pressure Humidity
00:00 +24°C° 0.1 mm 2 mps 757 mmHg 85%
01:00 +24°C° 0.1 mm 2 mps 757 mmHg 88%
02:00 +23°C° 0 mm 2 mps 757 mmHg 91%
03:00 +23°C° 0.1 mm 2 mps 757 mmHg 91%
04:00 +23°C° 0.1 mm 2 mps 757 mmHg 91%
05:00 +23°C° 0.1 mm 2 mps 757 mmHg 91%
06:00 +25°C° 0 mm 2 mps 757 mmHg 81%
07:00 +27°C° 0 mm 2 mps 758 mmHg 71%
08:00 +29°C° 0 mm 3 mps 758 mmHg 60%
09:00 +31°C° 0 mm 3 mps 758 mmHg 53%
10:00 +33°C° 0 mm 4 mps 758 mmHg 46%
11:00 +35°C° 0 mm 4 mps 758 mmHg 39%
12:00 +35°C° 0 mm 5 mps 758 mmHg 36%
13:00 +36°C° 0 mm 5 mps 758 mmHg 32%
14:00 +36°C° 0 mm 5 mps 758 mmHg 29%
15:00 +36°C° 0 mm 4 mps 757 mmHg 32%
16:00 +35°C° 0 mm 4 mps 757 mmHg 35%
17:00 +35°C° 0 mm 4 mps 757 mmHg 38%
18:00 +31°C° 0.3 mm 3 mps 757 mmHg 51%
19:00 +29°C° 0.3 mm 2 mps 758 mmHg 63%
20:00 +26°C° 0.3 mm 2 mps 758 mmHg 75%
21:00 +25°C° 0.7 mm 2 mps 758 mmHg 80%
22:00 +24°C° 0.7 mm 1 mps 758 mmHg 84%
23:00 +22°C° 0.7 mm 1 mps 758 mmHg 89%

Tomorrow, 24 June, Thursday

Time Temperature Precipitation Wind Pressure Humidity
00:00 +22°C° 0.4 mm 1 mps 759 mmHg 91%
01:00 +22°C° 0.4 mm 1 mps 759 mmHg 92%
02:00 +22°C° 0.4 mm 1 mps 759 mmHg 94%
03:00 +22°C° 0.2 mm 1 mps 759 mmHg 94%
04:00 +22°C° 0.2 mm 1 mps 759 mmHg 94%
05:00 +21°C° 0.2 mm 0 mps 759 mmHg 94%
06:00 +22°C° 0.2 mm 0 mps 759 mmHg 90%
07:00 +23°C° 0.2 mm 0 mps 759 mmHg 87%
08:00 +24°C° 0.2 mm 0 mps 759 mmHg 84%
09:00 +27°C° 0.1 mm 1 mps 759 mmHg 76%
10:00 +29°C° 0.1 mm 1 mps 759 mmHg 69%
11:00 +30°C° 0.1 mm 1 mps 759 mmHg 61%
12:00 +30°C° 0.6 mm 1 mps 759 mmHg 64%
13:00 +29°C° 0.6 mm 1 mps 759 mmHg 67%
14:00 +29°C° 0.6 mm 1 mps 758 mmHg 70%
15:00 +29°C° 0.2 mm 1 mps 758 mmHg 66%
16:00 +30°C° 0.2 mm 1 mps 758 mmHg 63%
17:00 +29°C° 0.2 mm 0 mps 758 mmHg 60%
18:00 +28°C° 1.8 mm 2 mps 758 mmHg 71%
19:00 +25°C° 1.8 mm 3 mps 758 mmHg 82%
20:00 +21°C° 1.8 mm 4 mps 758 mmHg 93%
21:00 +20°C° 0.9 mm 3 mps 758 mmHg 95%
22:00 +20°C° 0.9 mm 2 mps 757 mmHg 96%
23:00 +20°C° 0.9 mm 1 mps 757 mmHg 97%

Day after tomorrow, 25 June, Friday

Time Temperature Precipitation Wind Pressure Humidity
00:00 +20°C° 0 mm 1 mps 757 mmHg 97%
01:00 +20°C° 0 mm 1 mps 757 mmHg 97%
02:00 +20°C° 0 mm 1 mps 757 mmHg 97%
03:00 +20°C° 0.1 mm 1 mps 757 mmHg 96%
04:00 +20°C° 0.1 mm 1 mps 756 mmHg 96%
05:00 +21°C° 0.1 mm 1 mps 756 mmHg 95%
06:00 +22°C° 0 mm 1 mps 756 mmHg 88%
07:00 +24°C° 0 mm 1 mps 756 mmHg 81%
08:00 +25°C° 0 mm 1 mps 756 mmHg 74%
09:00 +27°C° 0.1 mm 1 mps 756 mmHg 68%
10:00 +28°C° 0.1 mm 2 mps 756 mmHg 62%
11:00 +30°C° 0.1 mm 2 mps 756 mmHg 56%
12:00 +31°C° 0.1 mm 2 mps 755 mmHg 55%
13:00 +31°C° 0.1 mm 2 mps 755 mmHg 53%
14:00 +33°C° 0.1 mm 3 mps 755 mmHg 52%
15:00 +33°C° 0.1 mm 3 mps 754 mmHg 53%
16:00 +33°C° 0.1 mm 3 mps 753 mmHg 53%
17:00 +33°C° 0.1 mm 3 mps 753 mmHg 54%
18:00 +29°C° 3.6 mm 3 mps 753 mmHg 68%
19:00 +26°C° 3.6 mm 3 mps 753 mmHg 81%
20:00 +21°C° 3.6 mm 3 mps 754 mmHg 95%
21:00 +21°C° 1.8 mm 2 mps 754 mmHg 96%
22:00 +21°C° 1.8 mm 2 mps 754 mmHg 96%
23:00 +20°C° 1.8 mm 2 mps 753 mmHg 96%

26 June, Saturday

Time Temperature Precipitation Wind Pressure Humidity
00:00 +20°C° 0.2 mm 2 mps 754 mmHg 96%
01:00 +20°C° 0.2 mm 1 mps 754 mmHg 97%
02:00 +20°C° 0.2 mm 1 mps 754 mmHg 97%
03:00 +20°C° 0 mm 1 mps 754 mmHg 97%
04:00 +21°C° 0 mm 1 mps 754 mmHg 97%
05:00 +21°C° 0 mm 1 mps 754 mmHg 97%
06:00 +22°C° 0 mm 1 mps 754 mmHg 92%
07:00 +24°C° 0 mm 1 mps 754 mmHg 87%
08:00 +25°C° 0 mm 1 mps 754 mmHg 82%
09:00 +27°C° 0 mm 1 mps 754 mmHg 74%
10:00 +29°C° 0 mm 1 mps 754 mmHg 66%
11:00 +31°C° 0 mm 1 mps 754 mmHg 58%
12:00 +31°C° 0 mm 1 mps 754 mmHg 55%
13:00 +32°C° 0 mm 2 mps 754 mmHg 51%
14:00 +34°C° 0 mm 2 mps 754 mmHg 48%
15:00 +32°C° 0 mm 2 mps 754 mmHg 50%
16:00 +32°C° 0 mm 1 mps 753 mmHg 52%
17:00 +31°C° 0 mm 1 mps 753 mmHg 54%
18:00 +30°C° 0 mm 1 mps 753 mmHg 61%
19:00 +29°C° 0 mm 1 mps 753 mmHg 69%
20:00 +27°C° 0 mm 1 mps 753 mmHg 76%
21:00 +26°C° 0.6 mm 1 mps 753 mmHg 81%
22:00 +24°C° 0.6 mm 1 mps 753 mmHg 86%
23:00 +23°C° 0.6 mm 1 mps 753 mmHg 91%

27 June, Sunday

Time Temperature Precipitation Wind Pressure Humidity
00:00 +23°C° 0.5 mm 1 mps 753 mmHg 93%
01:00 +22°C° 0.5 mm 1 mps 753 mmHg 95%
02:00 +21°C° 0.5 mm 2 mps 753 mmHg 97%
03:00 +22°C° 0 mm 1 mps 753 mmHg 97%
04:00 +22°C° 0 mm 1 mps 753 mmHg 97%
05:00 +22°C° 0 mm 1 mps 753 mmHg 97%
06:00 +23°C° 0 mm 1 mps 753 mmHg 94%
07:00 +23°C° 0 mm 2 mps 754 mmHg 91%
08:00 +24°C° 0 mm 2 mps 754 mmHg 88%
09:00 +24°C° 0 mm 2 mps 754 mmHg 85%
10:00 +25°C° 0 mm 2 mps 754 mmHg 82%
11:00 +25°C° 0 mm 2 mps 754 mmHg 79%
12:00 +25°C° 0 mm 2 mps 754 mmHg 76%
13:00 +26°C° 0 mm 2 mps 754 mmHg 74%
14:00 +26°C° 0 mm 2 mps 754 mmHg 71%
15:00 +27°C° 0 mm 2 mps 754 mmHg 66%
16:00 +27°C° 0 mm 3 mps 754 mmHg 61%
17:00 +28°C° 0 mm 3 mps 754 mmHg 56%
18:00 +26°C° 0 mm 3 mps 754 mmHg 63%
19:00 +25°C° 0 mm 3 mps 754 mmHg 71%
20:00 +23°C° 0 mm 2 mps 754 mmHg 78%
21:00 +21°C° 0 mm 2 mps 754 mmHg 83%
22:00 +20°C° 0 mm 2 mps 755 mmHg 88%
23:00 +18°C° 0 mm 2 mps 755 mmHg 93%

28 June, Monday

Time Temperature Precipitation Wind Pressure Humidity
00:00 +18°C° 0 mm 2 mps 755 mmHg 94%
01:00 +17°C° 0 mm 2 mps 755 mmHg 95%
02:00 +17°C° 0 mm 2 mps 755 mmHg 97%
03:00 +17°C° 0 mm 2 mps 755 mmHg 95%
04:00 +17°C° 0 mm 2 mps 755 mmHg 93%
05:00 +17°C° 0 mm 2 mps 755 mmHg 91%
06:00 +19°C° 0 mm 2 mps 755 mmHg 83%
07:00 +20°C° 0 mm 3 mps 755 mmHg 74%
08:00 +22°C° 0 mm 3 mps 755 mmHg 65%
09:00 +24°C° 0 mm 3 mps 755 mmHg 61%
10:00 +25°C° 0 mm 3 mps 755 mmHg 56%
11:00 +26°C° 0 mm 3 mps 755 mmHg 51%
12:00 +27°C° 0 mm 3 mps 755 mmHg 49%
13:00 +27°C° 0 mm 3 mps 755 mmHg 47%
14:00 +28°C° 0 mm 3 mps 755 mmHg 44%
15:00 +27°C° 0 mm 2 mps 755 mmHg 50%
16:00 +26°C° 0 mm 2 mps 755 mmHg 57%
17:00 +25°C° 0 mm 2 mps 755 mmHg 63%
18:00 +24°C° 0 mm 2 mps 755 mmHg 66%
19:00 +23°C° 0 mm 2 mps 755 mmHg 70%
20:00 +21°C° 0 mm 2 mps 754 mmHg 73%
21:00 +20°C° 0 mm 2 mps 755 mmHg 76%
22:00 +19°C° 0 mm 2 mps 755 mmHg 80%
23:00 +19°C° 0 mm 2 mps 755 mmHg 83%
Show more